Ft Lauderdale, FL

11:21 AM EST on January 22, 2018 (GMT -0500)
Fort Lauderdale-Hollywood International

Weather History for KFLL - September, 2012

Change the Weather History Date:

Tuesday, September 25, 2012

  Actual Average Record
Temperature  
Mean Temperature 81 °F 83 °F  
Max Temperature 87 °F 88 °F 95 °F (1940)
Min Temperature 75 °F 77 °F 67 °F (1916)
Degree Days  
Heating Degree Days 0 0  
Month to date heating degree days 0 0  
Since 1 July heating degree days 0 0  
Cooling Degree Days 16 18  
Month to date cooling degree days 433 456  
Year to date cooling degree days 3622 3622  
Growing Degree Days 31 (Base 50)    
Moisture  
Dew Point 71 °F    
Average Humidity 74    
Maximum Humidity 87    
Minimum Humidity 61    
Precipitation  
Precipitation T in 0.28 in 2.24 in (1922)
Month to date precipitation 7.59 7.29  
Year to date precipitation 50.92 48.36  
Snow  
Snow 0.00 in - - ()
Month to date snowfall 0.0  
Since 1 July snowfall 0.0  
Since 1 September snowfall 0.0  
Snow Depth 0.00 in    
Sea Level Pressure  
Sea Level Pressure 30.03 in    
Wind  
Wind Speed 7 mph (NE)    
Max Wind Speed 14 mph    
Max Gust Speed 20 mph    
Visibility 10 miles    
Events Thunderstorm    
T = Trace of Precipitation, MM = Missing Value Source: NWS Daily Summary

Daily Weather History Graph

Daily Weather History Graph

Search for Another Location

Airport or City:

Trip Planner

Search our weather history database for the weather conditions in past years. The results will help you decide how hot, cold, wet, or windy it might be!

Date:

Astronomy

Sep. 25, 2012 Rise Set
Actual Time 7:10 AM EDT 7:13 PM EDT
Civil Twilight 6:47 AM EDT 7:36 PM EDT
Nautical Twilight 6:20 AM EDT 8:02 PM EDT
Astronomical Twilight 5:53 AM EDT 8:29 PM EDT
Moon 4:17 PM EDT (9/25) 2:53 AM EDT (9/25)
Length of Visible Light 12h 48m
Length of Day
12h 02m
Waxing Gibbous, 80% of the Moon is Illuminated
Sep 25
Waxing Gibbous
Sep 29
Full
Oct 8
Last Quarter
Oct 15
New
Oct 21
First Quarter

Hourly Weather History & Observations

Time (EDT) Temp. Heat Index Dew Point Humidity Pressure Visibility Wind Dir Wind Speed Gust Speed Precip Events Conditions
12:53 AM 77.0 °F - 71.1 °F 82% 30.02 in 10.0 mi Calm Calm - 0.00 in   Scattered Clouds
1:53 AM 77.0 °F - 70.0 °F 79% 30.01 in 10.0 mi NNW 5.8 mph - N/A   Partly Cloudy
2:53 AM 75.9 °F - 70.0 °F 82% 30.00 in 10.0 mi NNW 5.8 mph - N/A   Scattered Clouds
3:53 AM 75.0 °F - 70.0 °F 84% 29.99 in 10.0 mi NW 4.6 mph - N/A   Partly Cloudy
4:53 AM 75.0 °F - 71.1 °F 87% 29.99 in 10.0 mi NNW 4.6 mph - N/A   Partly Cloudy
5:53 AM 75.9 °F - 71.1 °F 85% 29.99 in 10.0 mi NNW 3.5 mph - N/A   Partly Cloudy
6:01 AM 75.2 °F - 71.6 °F 89% 30.00 in 10.0 mi Calm Calm - N/A   Mostly Cloudy
6:35 AM 77.0 °F - 71.6 °F 83% 30.00 in 10.0 mi Calm Calm - N/A   Scattered Clouds
6:53 AM 75.9 °F - 71.1 °F 85% 30.01 in 10.0 mi NW 3.5 mph - N/A   Scattered Clouds
7:53 AM 77.0 °F - 72.0 °F 84% 30.03 in 10.0 mi NW 3.5 mph - N/A   Mostly Cloudy
8:05 AM 78.8 °F - 73.4 °F 83% 30.03 in 10.0 mi Calm Calm - N/A   Mostly Cloudy
8:53 AM 79.0 °F - 73.0 °F 82% 30.04 in 10.0 mi North 4.6 mph - 0.00 in   Overcast
9:19 AM 80.6 °F 85.4 °F 73.4 °F 79% 30.04 in 10.0 mi North 4.6 mph - N/A   Overcast
9:53 AM 82.0 °F 87.4 °F 73.0 °F 74% 30.05 in 10.0 mi Calm Calm - N/A   Mostly Cloudy
10:53 AM 84.9 °F 89.4 °F 70.0 °F 61% 30.06 in 10.0 mi East 6.9 mph - N/A   Scattered Clouds
11:53 AM 84.9 °F 90.7 °F 72.0 °F 65% 30.07 in 10.0 mi East 9.2 mph - N/A   Partly Cloudy
12:53 PM 87.1 °F 95.4 °F 73.9 °F 65% 30.05 in 10.0 mi East 12.7 mph - N/A   Partly Cloudy
1:53 PM 87.1 °F 95.4 °F 73.9 °F 65% 30.04 in 10.0 mi East 9.2 mph - N/A   Partly Cloudy
2:53 PM 86.0 °F 93.4 °F 73.4 °F 66% 30.01 in 10.0 mi East 8.1 mph - N/A   Partly Cloudy
3:53 PM 84.9 °F 91.4 °F 73.0 °F 67% 29.99 in 10.0 mi ENE 10.4 mph - N/A   Partly Cloudy
4:53 PM 84.0 °F 89.6 °F 72.0 °F 67% 30.00 in 10.0 mi East 9.2 mph - N/A   Partly Cloudy
5:53 PM 84.0 °F 89.6 °F 72.0 °F 67% 30.01 in 10.0 mi ENE 11.5 mph - N/A   Partly Cloudy
6:53 PM 82.9 °F 87.5 °F 71.1 °F 67% 30.02 in 10.0 mi East 8.1 mph - N/A   Partly Cloudy
7:08 PM 82.4 °F 87.2 °F 71.6 °F 70% 30.03 in 10.0 mi East 11.5 mph - N/A Thunderstorm Thunderstorm
7:53 PM 79.0 °F - 66.0 °F 64% 30.04 in 10.0 mi North 9.2 mph - N/A Thunderstorm Thunderstorm
8:09 PM 78.8 °F - 64.4 °F 61% 30.04 in 10.0 mi North 6.9 mph - N/A   Partly Cloudy
8:53 PM 79.0 °F - 69.1 °F 72% 30.04 in 10.0 mi NE 3.5 mph - N/A   Partly Cloudy
9:53 PM 82.0 °F 85.5 °F 69.1 °F 65% 30.05 in 10.0 mi ENE 9.2 mph - N/A   Partly Cloudy
10:53 PM 82.0 °F 86.7 °F 72.0 °F 71% 30.07 in 10.0 mi East 5.8 mph - N/A   Partly Cloudy
11:53 PM 82.0 °F 86.7 °F 72.0 °F 71% 30.07 in 10.0 mi East 4.6 mph - N/A   Scattered Clouds